Flag for U.S.A. Weather past 2 weeks in Wichita, Kansas, U.S.A.

Now
44 °F

Passing clouds.


Feels Like: 38 °F
Forecast: 7 / 38 °F
Wind: 12 mph from West

Location: Wichita Mid-Continent Airport

Current Time: Mar 5, 2015 at 3:24:29 PM

Latest Report: Mar 5, 2015 at 2:53 PM


Visibility: 10 mi

Pressure: 30.46 "Hg

Humidity: 31%

Dew point: 15 °F

Location of WichitaLocation

Historic Weather in Wichita — Graph

°F

Wichita temperature yesterday

Maximum temperature yesterday: 32 °F (at 12:53 AM)
Minimum temperature yesterday: 20 °F (at 6:53 AM)
Average temperature yesterday: 25 °F

Past Weeks' High & Low Weather Summary

 TemperatureHumidityPressure
High56 °F (Feb 25, 3:53 PM)100% (Feb 20, 11:53 PM)30.78 "Hg (Feb 20, 11:53 PM)
Low11 °F (Feb 27, 3:53 AM)21% (Feb 18, 3:53 PM)29.74 "Hg (Feb 25, 2:53 PM)
Average27 °F64%30.28 "Hg
* Reported Feb 18 1:53 PM — Mar 5 1:53 PM, Wichita, Weather by CustomWeather, © 2015

Note: Actual official high and low records may vary slightly from our data, if they occured in-between our weather recording intervals... More about our weather records

Advertising

Wichita weather history for previous 24 hours

 ConditionsComfort  
Time TempWeatherWind HumidityBarometerVisibility
1:53 PM
Thu, Mar 5
42 °FPassing clouds.10 mph35%30.48 "Hg10 mi
12:53 PM40 °FPassing clouds.9 mph36%30.52 "Hg10 mi
11:53 AM37 °FSunny.9 mph41%30.54 "Hg10 mi
10:53 AM33 °FSunny.9 mph45%30.55 "Hg10 mi
9:53 AM29 °FSunny.8 mph47%30.56 "Hg10 mi
8:53 AM24 °FSunny.7 mph55%30.57 "Hg10 mi
7:53 AM19 °FSunny.No wind71%30.57 "Hg10 mi
6:53 AM11 °FPassing clouds.3 mph81%30.57 "Hg10 mi
5:53 AM13 °FClear.No wind74%30.55 "Hg10 mi
4:53 AM15 °FClear.6 mph74%30.52 "Hg10 mi
3:53 AM16 °FPassing clouds.No wind71%30.50 "Hg10 mi
2:53 AM14 °FPassing clouds.3 mph80%30.50 "Hg10 mi
1:53 AM18 °FPassing clouds.6 mph71%30.48 "Hg10 mi
12:53 AM18 °FPassing clouds.5 mph68%30.47 "Hg10 mi
11:53 PM
Wed, Mar 4
20 °FPassing clouds.5 mph65%30.47 "Hg10 mi
10:53 PM21 °FPassing clouds.3 mph60%30.47 "Hg10 mi
9:53 PM25 °FPassing clouds.3 mph50%30.46 "Hg10 mi
8:53 PM27 °FPartly cloudy.5 mph46%30.43 "Hg10 mi
7:53 PM27 °FOvercast.6 mph45%30.41 "Hg10 mi
6:53 PM29 °FMostly cloudy.9 mph43%30.38 "Hg10 mi
5:53 PM30 °FMostly cloudy.17 mph36%30.31 "Hg10 mi
4:53 PM30 °FMostly cloudy.12 mph41%30.33 "Hg10 mi
3:53 PM30 °FMostly cloudy.18 mph41%30.28 "Hg10 mi
Weather by CustomWeather, © 2015

See weather overviewHow to use our weather pages